Location: Chapelle Saint Michel-Treve
(48.1908°N, 3.3436°W)
Time: 13:15:21
(UTC+00:00)

Daily predictions for brighter satellites

Satellite Brightness Start Highest point End
(mag) Time Altitude Azimuth Time Altitude Azimuth Time Altitude Azimuth
Cosmos 1825 3.5 17:00:52 10° NNW 17:04:31 45° W 17:08:08 10° SSW
Cosmos 1656 4.1 17:02:08 10° S 17:07:20 43° ESE 17:12:29 10° NE
Okean O Rocket 2.3 17:03:06 10° S 17:07:26 61° WSW 17:11:47 10° NNW
Cosmos 773 Rocket 4.0 17:03:29 10° SSW 17:08:38 74° ESE 17:13:52 10° NNE
Sich 1 3.5 17:06:54 10° N 17:11:00 38° ENE 17:15:05 10° SE
Cosmos 1607 4.2 17:06:46 10° NW 17:12:59 77° SW 17:19:14 10° SSE
Meteor 1-27 4.3 17:07:43 10° S 17:13:23 80° E 17:19:10 10° NNE
YAOGAN 6 4.2 17:11:35 10° E 17:13:32 14° ENE 17:15:28 10° NNE
Cosmos 1689 Rocket 3.4 17:11:13 10° N 17:14:08 42° WNW 17:17:01 10° SW
Cosmos 1666 Rocket 4.2 17:13:41 10° N 17:17:41 33° ENE 17:21:37 10° SE
CZ-4B R/B 3.7 17:15:37 10° N 17:18:28 25° WNW 17:21:21 10° SW
IRS-1C Rocket 4.1 17:14:29 10° SSE 17:19:45 78° ENE 17:25:04 10° NNW
COSMO-SKYMED 1 4.1 17:17:06 10° NE 17:20:00 17° E 17:22:53 10° SE
Cosmos 1464 Rocket 4.2 17:14:17 10° N 17:20:11 44° ENE 17:26:00 10° SE
Meteor 2-3 Rocket 4.4 17:16:17 10° NNW 17:22:01 62° W 17:27:40 10° S
AQUARIUS 4.2 17:18:25 10° SSE 17:22:51 62° ENE 17:27:19 10° N
Cosmos 1862 3.9 17:22:21 10° N 17:26:01 34° ENE 17:29:39 10° SE
Cosmos 2221 3.1 17:25:08 10° SSW 17:29:24 60° WNW 17:33:44 10° N
Cosmos 2056 Rocket 4.3 17:25:58 10° N 17:30:25 29° NE 17:34:53 10° ESE
Cosmos 1238 Rocket 3.8 17:29:43 10° NNW 17:33:48 48° W 17:37:11 10° SSW
USA 215 3.9 17:30:23 12° ENE 17:36:04 42° N 17:42:07 10° WNW
Meteor 2-2 Rocket 4.3 17:32:27 10° S 17:38:18 88° W 17:44:04 10° NNE
Cosmos 1538 Rocket 4.1 17:33:44 10° SSW 17:39:01 83° WNW 17:44:23 10° NNE
BREEZE-M DEB (TANK) 4.1 17:35:01 10° SW 17:40:40 27° SSE 17:43:07 13° ESE
NOSS 2-3 (E) 4.3 17:39:36 10° S 17:43:40 39° ESE 17:47:11 16° ENE
CSL-04 Rocket 4.3 17:39:04 10° SE 17:43:45 32° ENE 17:48:25 10° N
USA 229 DEB 3.7 17:39:52 10° SW 17:46:29 84° NW 17:53:23 10° NE
CORIOLIS 4.2 17:41:09 10° SSE 17:46:34 89° WSW 17:52:03 10° NNW
USA 229 3.7 17:39:58 10° SW 17:46:35 84° NW 17:53:27 10° NE
YAOGAN 1 3.4 17:43:15 10° SE 17:46:56 28° ENE 17:50:38 10° N
Cosmos 1470 Rocket 4.2 17:44:48 10° N 17:48:54 33° ENE 17:52:57 10° SE
NOSS 3-1 (C) 3.4 17:44:43 10° SW 17:50:19 84° NW 17:56:33 12° NE
SeaSat 1 2.4 17:46:44 10° SE 17:51:36 63° NE 17:56:29 10° NNW
NOSS 3-1 (A) 3.3 17:46:11 10° SSW 17:51:42 70° SE 17:57:20 14° NE
ERBS 2.2 17:49:42 10° SW 17:53:02 82° NW 17:54:56 24° NE
NOSS 2-3 (D) 4.1 17:49:07 10° SSW 17:53:15 44° ESE 17:56:24 19° ENE
Cosmos 1980 Rocket 2.8 17:50:09 10° S 17:55:12 34° ESE 17:58:45 18° NE
Cosmos 2297 Rocket 3.5 17:53:57 10° NW 17:59:18 44° WSW 18:04:36 10° S
Cosmos 2227 Rocket 3.3 17:54:21 10° NW 17:59:46 47° WSW 18:05:08 10° S
Envisat 2.9 17:55:34 10° SSE 18:00:38 76° ENE 18:05:44 10° N
Cosmos 1869 4.3 18:01:51 10° SSW 18:05:40 47° WNW 18:09:30 10° N
SKYMED 2 3.7 18:04:16 10° NNE 18:08:30 49° E 18:12:43 10° S
Cosmos 1633 3.2 18:08:02 10° NNW 18:11:38 57° W 18:15:12 10° S
H-2A R/B 4.3 18:09:58 10° SSW 18:13:35 39° W 18:17:10 10° NNW
NOAA 12 4.4 18:08:21 10° S 18:13:40 71° WSW 18:19:01 10° NNW
GEOS 3 Rocket 3.6 18:13:44 21° NE 18:17:19 77° SE 18:22:35 10° SW
Cosmos 2263 Rocket 2.6 18:12:26 10° NNW 18:17:37 38° NE 18:19:31 29° E
Cosmos 1452 Rocket 4.3 18:14:27 10° N 18:19:03 29° NE 18:19:20 29° ENE
Cosmos 2034 Rocket 4.0 18:12:50 10° N 18:19:14 85° E 18:25:37 10° S
CENTAUR R/B 4.0 18:14:10 10° NW 18:20:28 29° NNE 18:23:48 22° NE
Cosmos 1371 Rocket 3.9 18:16:00 10° NNW 18:21:14 79° ENE 18:26:24 10° SSE
Okean-O 3.4 18:16:58 10° S 18:21:19 54° W 18:25:41 10° NNW
Cosmos 2369 3.7 18:18:03 10° SSW 18:23:44 82° WNW 18:28:43 14° NNE
Geosat 3.9 18:21:49 18° NNE 18:25:40 85° ESE 18:30:42 10° SSW
Cosmos 158 Rocket 4.1 18:21:49 10° S 18:26:56 52° ESE 18:29:07 31° NE
FengYun 1-2 T 4.2 18:24:05 10° SSE 18:29:36 83° WSW 18:35:09 10° NNW
COBE Rocket 4.5 18:25:52 10° N 18:30:33 55° WNW 18:35:06 10° SSW
NOSS 2-3 (C) 3.7 18:26:35 10° SW 18:31:00 89° SE 18:33:20 32° NE
Cosmos 1697 Rocket 2.8 18:27:40 10° SSW 18:33:19 75° WNW 18:37:52 16° NNE
Cosmos 2112 Rocket 3.9 18:31:13 10° SSW 18:36:25 89° WNW 18:40:07 20° NNE
Cosmos 1634 Rocket 4.0 18:31:26 10° N 18:37:30 54° ENE 18:43:31 10° SSE
CZ-4 R/B 1.5 18:33:30 10° S 18:37:38 75° WSW 18:41:43 10° NNW
USA 238 DEB 4.3 18:31:24 10° NW 18:38:02 40° NNE 18:40:01 34° ENE
USA 238 4.3 18:31:30 10° NW 18:38:07 40° NNE 18:40:06 34° ENE
Cosmos 2360 4.1 18:33:42 10° SSW 18:39:24 84° ESE 18:42:50 25° NNE
Lacrosse 4 Rocket 2.4 18:35:47 10° WSW 18:39:40 42° NW 18:41:38 24° N
Cosmos 1633 Rocket 4.3 18:37:03 10° NNW 18:41:14 43° W 18:45:24 10° SSW
ATLAS 3B R/B 3.8 18:36:05 10° NW 18:41:25 24° NNE 18:42:46 23° NE
Cosmos 2278 3.8 18:36:29 10° SSW 18:42:11 79° WNW 18:46:06 21° NNE
Cosmos 1680 Rocket 3.7 18:37:25 10° SSW 18:42:37 70° WNW 18:46:41 17° NNE
NOSS 3-2 (A) 4.4 18:36:02 10° NW 18:42:44 40° NNE 18:44:50 34° ENE
Ariane Rocket 3.2 18:43:46 48° ENE 18:43:46 48° ENE 18:48:30 10° N
Cosmos 2228 Rocket 3.9 18:40:14 10° S 18:43:04 35° SSE 18:43:04 35° SSE
Cosmos 1816 Rocket 4.4 18:38:18 10° S 18:44:39 84° E 18:51:04 10° N
Cosmos 1939 Rocket 3.9 18:46:41 34° N 18:46:41 34° N 18:49:12 10° N
YAOGAN 6 3.5 18:43:19 10° S 18:46:41 46° W 18:50:04 10° NNW
Tsikada Rocket 3.9 18:40:39 10° S 18:47:01 83° E 18:53:29 10° N
Cosmos 1151 Rocket 3.5 18:46:09 10° SSW 18:50:28 62° WNW 18:54:27 12° N
COSMO-SKYMED 1 3.2 18:52:46 13° N 18:56:30 55° WNW 19:00:44 10° SSW
Cosmos 1933 Rocket 3.7 18:52:21 10° NNW 18:56:42 71° W 19:01:01 10° S
Cosmos 2279 Rocket 4.2 18:51:05 10° N 18:56:31 47° ENE 18:56:31 47° ENE
Cosmos 1328 Rocket 4.4 18:52:59 10° SSW 18:57:16 49° WNW 19:01:34 10° N
Cosmos 1933 3.7 18:54:35 10° S 18:57:50 56° SSW 18:57:50 56° SSW
Cosmos 1844 Rocket 4.3 18:55:45 10° N 18:58:11 19° NNE 18:58:11 19° NNE
Cosmos 1515 Rocket 3.7 18:56:03 10° SSW 19:00:26 72° W 19:01:46 43° N
Cosmos 2227 4.2 18:55:05 10° NNW 19:00:53 85° WSW 19:03:45 31° SSE
Meteor 1-26 Rocket 4.3 18:55:06 10° S 19:00:58 61° E 19:01:41 56° ENE
NOAA 11 4.2 19:03:56 10° S 19:09:21 78° WSW 19:14:49 10° NNW
Cosmos 2056 Rocket 4.4 19:07:50 10° NNW 19:12:45 47° WSW 19:17:41 10° S
H-2A R/B 4.1 19:16:40 16° N 19:16:40 16° N 19:17:43 10° N
Timation 1 Rocket 4.2 19:08:37 10° NNW 19:14:38 85° ENE 19:15:24 69° SE
USA 215 3.2 19:17:45 61° ENE 19:18:33 66° NNE 19:25:01 10° NW
Meteor 1-25 Rocket 4.4 19:15:36 10° NNW 19:21:16 73° W 19:26:59 10° S
YAOGAN 1 4.2 19:19:00 10° SSW 19:22:57 34° W 19:26:54 10° NNW
Meteor 1-20 Rocket 4.5 19:17:28 10° NNW 19:23:19 71° W 19:29:03 10° S
NOSS 3-2 (C) 4.3 19:21:06 10° NW 19:27:53 47° NNE 19:27:53 47° NNE
BREEZE-M DEB (TANK) 4.0 19:25:01 10° WNW 19:28:02 31° WNW 19:28:02 31° WNW
SL-16 R/B 3.8 19:30:57 10° SSW 19:32:55 22° S 19:32:55 22° S
Cosmos 1980 Rocket 3.1 19:33:38 10° SW 19:39:04 45° NW 19:40:34 37° NNW
IRS-1A Rocket 4.4 19:39:34 70° WSW 19:39:34 70° WSW 19:45:20 10° NNW
Cosmos 2322 Rocket 4.3 19:38:56 10° SSW 19:39:46 15° SSW 19:39:46 15° SSW
Cosmos 2263 Rocket 3.3 19:56:24 10° NW 20:01:16 40° W 20:01:16 40° W
CENTAUR R/B 3.6 20:05:07 10° NW 20:10:59 49° N 20:10:59 49° N
ATLAS 3B R/B 4.1 20:26:56 10° NW 20:30:01 28° NNW 20:30:01 28° NNW
